Location: Rio Negrinho
(26.2394°S, 49.4999°W)
Time: 08:22:36
(UTC+00:00)

H-2A R/B - Pass Details

Date: 02 October 2020
Orbit: 500 x 542 km, 97.3° (Epoch: 17 June)

Event Time Altitude Azimuth Distance (km) Brightness Sun altitude
Rises 21:42:18 0° 191° (S) 2,724 6.6 -6.1°
Reaches altitude 10° 21:44:58 10° 210° (SSW) 1,819 6.0 -6.7°
Maximum altitude 21:47:38 18° 252° (WSW) 1,384 6.2 -7.3°
Drops below altitude 10° 21:50:16 10° 295° (WNW) 1,792 6.4 -7.9°
Sets 21:52:53 0° 315° (NW) 2,666 6.9 -8.4°
